x

8419317 - Wells, Me (welm1) Weather Station

4:18 - Wed 29th Mar 2017 All times are EDT. -4 hours from GMT.

  • Wind
    17mph, 23mph gusts
  • Sea Temp 39°f
  • Ar Temp 42°f
  • Sea Pressure 1016.7mb
  • 8419317 - Wells, Me
  • 8419317 - Wells, Me

More Historic Weather Station data

Upgrade to MSW Pro to gain access to the past 30 days of data for over 8000 Wavebouys and Weather Stations around the globe.

Join Pro

Comparision Forecast

View Surf forecast
   
Qua 03/29 4:18 17 23 mph 1016.7mb 39f 42f
4:12 17 22 mph 1016.6mb 39f 42f
4:06 20 23 mph 1016.6mb 39f 42f
4:00 15 21 mph 1016.6mb 40f 42f
3:54 14 21 mph 1016.5mb 40f 43f
3:48 15 22 mph 1016.5mb 40f 43f
3:42 15 22 mph 1016.6mb 40f 43f
3:36 14 17 mph 1016.5mb 39f 43f
3:30 14 21 mph 1016.3mb 39f 43f
3:24 14 17 mph 1016.4mb 39f 43f
3:18 13 18 mph 1016.3mb 39f 44f
3:12 13 15 mph 1016.2mb 39f 44f
3:06 11 14 mph 1016.2mb 39f 44f
3:00 10 13 mph 1016.2mb 39f 44f
2:54 8 14 mph 1016.1mb 39f 44f
2:48 9 14 mph 1016.1mb 39f 44f
2:42 10 14 mph 1016.1mb 39f 44f
2:36 8 11 mph 1016.2mb 39f 44f
2:30 9 15 mph 1016.2mb 39f 44f
2:24 10 14 mph 1016.1mb 39f 44f
2:18 8 10 mph 1016.2mb 39f 44f
2:12 10 15 mph 1016mb 39f 44f
2:06 14 17 mph 1016.1mb 39f 44f
2:00 10 17 mph 1016mb 39f 44f
1:54 13 16 mph 1015.9mb 39f 45f
1:48 15 16 mph 1015.9mb 39f 45f
1:42 8 14 mph 1016mb 39f 45f
1:36 9 14 mph 1016mb 39f 45f
1:30 9 13 mph 1016mb 39f 45f
1:24 8 11 mph 1016.1mb 38f 45f
1:18 9 11 mph 1016.1mb 38f 45f
1:12 10 15 mph 1016.1mb 38f 45f
1:06 11 15 mph 1016.1mb 38f 45f
1:00 9 11 mph 1016.1mb 38f 45f
12:54 10 14 mph 1016.2mb 38f 45f
12:48 7 11 mph 1016.1mb 38f 44f
12:42 10 11 mph 1016.2mb 38f 44f
12:36 7 11 mph 1016.2mb 38f 44f
12:30 6 7 mph 1016.2mb 38f 44f
12:24 8 9 mph 1016.1mb 38f 44f
12:18 7 10 mph 1016.1mb 38f 43f
12:12 5 9 mph 1016.2mb 38f 43f
12:06 7 9 mph 1016.1mb 38f 43f
12:00 8 11 mph 1016.2mb 38f 43f
11:54 8 9 mph 1016.2mb 38f 43f
11:48 8 13 mph 1016.2mb 38f 42f
11:42 8 10 mph 1016.3mb 38f 42f
11:36 7 11 mph 1016.4mb 38f 42f
11:30 7 11 mph 1016.5mb 38f 42f
11:24 10 14 mph 1016.6mb 38f 42f
11:18 10 15 mph 1016.7mb 38f 42f
11:12 10 14 mph 1016.8mb 38f 42f
11:06 10 17 mph 1016.8mb 38f 42f
11:00 9 14 mph 1016.9mb 38f 41f
10:54 10 17 mph 1017mb 38f 42f
10:48 9 16 mph 1017mb 38f 42f
10:42 10 15 mph 1017mb 38f 42f
10:36 11 17 mph 1016.9mb 38f 41f
10:30 10 20 mph 1016.9mb 38f 41f
10:24 10 14 mph 1016.8mb 38f 41f
10:18 8 11 mph 1016.9mb 38f 41f
10:12 9 15 mph 1016.9mb 38f 40f
10:06 11 13 mph 1016.8mb 38f 40f
10:00 11 15 mph 1016.7mb 38f 40f
9:54 11 14 mph 1016.6mb 38f 40f
9:48 13 15 mph 1016.6mb 38f 40f
9:42 13 15 mph 1016.5mb 38f 39f
9:36 11 15 mph 1016.4mb 38f 39f
9:30 8 11 mph 1016.4mb 38f 39f
9:24 8 10 mph 1016.3mb 38f 39f
9:18 6 8 mph 1016.2mb 38f 39f
9:12 8 11 mph 1016.2mb 38f 38f
9:06 7 8 mph 1016.3mb 38f 38f
9:00 8 9 mph 1016.2mb 38f 38f
8:54 7 10 mph 1016.2mb 38f 38f
8:48 7 11 mph 1016.2mb 38f 38f
8:42 7 9 mph 1016.3mb 38f 38f
8:36 8 10 mph 1016.4mb 38f 38f
8:30 8 10 mph 1016.3mb 38f 37f
8:24 8 10 mph 1016.2mb 38f 37f
8:18 8 10 mph 1016.3mb 38f 37f
8:12 9 13 mph 1016.3mb 38f 37f
8:06 7 11 mph 1016.3mb 38f 37f
8:00 9 11 mph 1016.2mb 38f 37f
7:54 8 10 mph 1016.2mb 38f 37f
7:48 8 10 mph 1016.2mb 38f 37f
7:42 8 11 mph 1016.1mb 38f 37f
7:36 8 10 mph 1016.2mb 38f 37f
7:30 8 10 mph 1016.2mb 38f 36f
7:24 7 10 mph 1016.3mb 38f 36f
7:18 9 10 mph 1016.2mb 38f 36f
7:12 8 10 mph 1016.1mb 38f 36f
7:06 8 11 mph 1016mb 38f 36f
7:00 9 10 mph 1016mb 38f 36f
6:54 7 11 mph 1016mb 38f 36f
6:48 8 10 mph 1015.9mb 38f 36f
6:42 7 9 mph 1015.9mb 38f 36f
6:36 7 9 mph 1015.8mb 38f 36f
6:30 8 11 mph 1015.8mb 38f 36f
6:24 8 11 mph 1015.7mb 38f 36f
6:18 8 10 mph 1015.7mb 38f 36f
6:12 8 10 mph 1015.7mb 38f 36f
6:06 9 11 mph 1015.7mb 38f 36f
6:00 8 10 mph 1015.7mb 38f 36f
5:54 8 9 mph 1015.5mb 38f 36f
5:48 7 8 mph 1015.5mb 38f 35f
5:42 7 8 mph 1015.4mb 38f 35f
5:36 7 9 mph 1015.3mb 38f 35f
5:30 8 10 mph 1015.3mb 38f 35f
5:24 7 9 mph 1015.3mb 38f 35f
5:18 7 10 mph 1015.3mb 38f 35f
5:12 7 9 mph 1015.3mb 38f 35f
5:06 7 9 mph 1015.2mb 38f 35f
5:00 7 9 mph 1015.1mb 38f 35f
4:54 6 9 mph 1015mb 38f 35f
4:48 6 8 mph 1015mb 38f 35f
4:42 6 8 mph 1015mb 38f 35f
4:36 7 8 mph 1014.9mb 38f 35f
4:30 6 9 mph 1014.8mb 38f 35f
4:24 7 8 mph 1014.9mb 38f 35f
4:18 7 9 mph 1014.8mb 38f 35f
4:12 6 8 mph 1014.9mb 38f 35f
4:06 7 9 mph 1014.9mb 38f 35f
4:00 7 9 mph 1014.9mb 38f 35f
3:54 8 9 mph 1014.8mb 38f 35f
3:48 7 9 mph 1014.8mb 38f 35f
3:42 8 9 mph 1014.8mb 38f 35f
3:36 8 10 mph 1014.8mb 38f 35f
3:30 8 9 mph 1014.8mb 38f 35f
3:24 7 9 mph 1014.7mb 38f 35f
3:18 8 9 mph 1014.7mb 38f 35f
3:12 8 9 mph 1014.7mb 38f 35f
3:06 8 9 mph 1014.8mb 38f 35f
3:00 7 9 mph 1014.7mb 38f 36f
2:54 7 8 mph 1014.7mb 38f 35f
2:48 7 9 mph 1014.8mb 38f 36f
2:42 7 8 mph 1014.7mb 38f 36f
2:36 7 8 mph 1014.8mb 38f 36f
2:30 7 8 mph 1014.8mb 38f 36f
2:24 7 8 mph 1014.8mb 38f 36f
2:18 7 8 mph 1014.9mb 38f 36f
2:12 7 8 mph 1015mb 38f 36f
2:06 7 9 mph 1015mb 38f 36f
2:00 7 9 mph 1014.9mb 38f 36f
1:54 7
mph
1014.9mb 38f 36f
1:48 7
mph
1014.9mb 38f -
1:42 6 7 mph 1015mb 38f -
1:36 6 7 mph 1015mb 38f -
1:30 6 7 mph 1015.1mb 38f 36f
1:24 6 7 mph 1015.1mb 38f 36f
1:18 6 7 mph 1015.1mb 38f 36f
1:12 6
mph
1015.2mb 38f 36f
1:06 6
mph
1015.3mb 38f 36f
1:00 6 7 mph 1015.4mb 38f 36f
12:54 6
mph
1015.4mb 38f 36f
12:48 6 7 mph 1015.4mb 38f 36f
12:42 6 7 mph 1015.5mb 38f 36f
12:36 6 7 mph 1015.6mb 38f 36f
12:30 6 7 mph 1015.5mb 38f 36f
12:24 6 7 mph 1015.6mb 38f 36f
12:18 6 7 mph 1015.6mb 38f 36f
12:12 6 7 mph 1015.6mb 38f 36f
12:06 6
mph
1015.6mb 38f 36f
12:00 6
mph
1015.6mb 38f 36f
Ter 03/28 11:54 5 7 mph 1015.6mb 38f 36f
11:48 6 7 mph 1015.6mb 38f 36f
11:42 7
mph
1015.6mb 38f 36f
11:36 6 7 mph 1015.6mb 38f 36f
11:30 6 7 mph 1015.7mb 38f 36f
11:24 7
mph
1015.8mb 38f 36f
11:18 6 7 mph 1015.8mb 38f 36f
11:12 6 7 mph 1015.9mb 38f 36f
11:06 5 7 mph 1015.9mb 38f 37f
11:00 5 6 mph 1015.9mb 38f 36f
10:54 5 6 mph 1015.9mb 38f 36f
10:48 5 6 mph 1016mb 38f 36f
10:42 5 6 mph 1015.9mb 38f 36f
10:36 6
mph
1015.9mb 38f 36f
10:30 5 6 mph 1015.9mb 38f 37f
10:24 5 6 mph 1015.9mb 38f 37f
10:18 5 6 mph 1015.8mb 38f 37f
10:12 5 6 mph 1015.8mb 38f 36f
10:06 5 6 mph 1015.8mb 38f 36f
10:00 5 6 mph 1015.8mb 38f 36f
9:54 5 6 mph 1015.8mb 38f 36f
9:48 5 6 mph 1015.7mb 38f 36f
9:42 5 6 mph 1015.7mb 38f 36f
9:36 5 6 mph 1015.7mb 38f 36f
9:30 6
mph
1015.6mb 38f 36f
9:24 5 6 mph 1015.6mb 38f 36f
9:18 5 6 mph 1015.6mb 38f 37f
9:12 5 6 mph 1015.6mb 38f 37f
9:06 5 7 mph 1015.5mb 38f 36f
9:00 5 6 mph 1015.5mb 39f 36f
8:54 5 6 mph 1015.5mb 39f 36f
8:48 5 6 mph 1015.6mb 39f 37f
8:42 5 6 mph 1015.6mb 39f 36f
8:36 5 6 mph 1015.6mb 39f 36f
8:30 5 6 mph 1015.5mb 40f 36f
8:24 5 6 mph 1015.5mb 40f 36f
8:18 5 6 mph 1015.4mb 40f 36f
8:12 5 6 mph 1015.5mb 40f 36f
8:06 5 6 mph 1015.5mb 40f 36f
8:00 5
mph
1015.4mb 40f 37f
7:54 5 6 mph 1015.4mb 40f 37f
7:48 5 6 mph 1015.4mb 40f 37f
7:42 5 6 mph 1015.4mb 40f 37f
7:36 6
mph
1015.4mb 40f 37f
7:30 5 6 mph 1015.5mb 40f 37f
7:24 5 6 mph 1015.5mb 40f 37f
7:18 5 6 mph 1015.4mb 40f 37f
7:12 6
mph
1015.5mb 40f 37f
7:06 6
mph
1015.5mb 40f 37f
7:00 5 6 mph 1015.6mb 40f 37f
6:54 5
mph
1015.6mb 40f 37f
6:48 3
mph
1015.6mb 40f 37f
6:42 3
mph
1015.6mb 40f 37f
6:36 3 5 mph 1015.5mb 40f 37f
6:30 3 5 mph 1015.6mb 40f 37f
6:24 3
mph
1015.6mb 40f 37f
6:18 3
mph
1015.7mb 39f 37f
6:12 3 5 mph 1015.8mb 40f 37f
6:06 3 5 mph 1015.8mb 39f 37f
6:00 3
mph
1015.8mb 39f 37f
5:54 3 5 mph 1015.8mb 39f 37f
5:48 3 6 mph 1015.8mb 39f 37f
5:42 5 6 mph 1015.7mb 39f 37f
5:36 3 5 mph 1015.8mb 39f 37f
5:30 5 6 mph 1015.9mb 39f 37f
5:24 5 6 mph 1015.9mb 39f 37f
5:18 5
mph
1016mb 39f 37f
5:12 3 5 mph 1016mb 39f 37f
5:06 5
mph
1016mb 39f 37f
5:00 5 6 mph 1016mb 39f 37f
4:54 5 6 mph 1016mb 39f 37f
4:48 3 5 mph 1016mb 39f 37f
4:42 3 5 mph 1016.1mb 39f 37f
4:36 5 6 mph 1016.1mb 38f 37f
4:30 5
mph
1016.1mb 38f 37f
4:24 3 5 mph 1016.1mb 38f 37f
4:18 3 5 mph 1016.1mb 38f 37f
4:12 5
mph
1016.1mb 38f 37f
4:06 3 6 mph 1016mb 38f 37f
4:00 5 6 mph 1015.9mb 38f 37f
3:54 5 6 mph 1016.1mb 38f 37f
3:48 5 6 mph 1016.1mb 38f 37f
3:42 5 6 mph 1016.1mb 38f 37f
3:36 5 6 mph 1016.2mb 38f 37f
3:30 5 6 mph 1016.1mb 39f 37f
3:24 5 6 mph 1016mb 39f 37f
3:18 5 6 mph 1016.1mb 39f 37f
3:12 6 7 mph 1016.2mb 39f 37f
3:06 6 7 mph 1016.1mb 39f 37f
3:00 5 6 mph 1016.2mb 39f 37f
2:54 5 7 mph 1016.2mb 39f 37f
2:48 5 6 mph 1016.2mb 39f 37f
2:42 3 6 mph 1016.3mb 39f 37f
2:36 3 5 mph 1016.4mb 39f 37f
2:30 5 6 mph 1016.3mb 39f 37f
2:24 5 6 mph 1016.3mb 39f 37f
2:18 3 6 mph 1016.4mb 39f 37f
2:12 6
mph
1016.4mb 39f 37f
2:06 6 7 mph 1016.4mb 39f 37f
2:00 5 6 mph 1016.4mb 38f 37f
1:54 5 6 mph 1016.5mb 38f 37f
1:48 5 6 mph 1016.6mb 38f 37f
1:42 2 3 mph 1016.8mb 38f 37f
1:36 2 3 mph 1016.9mb 38f 37f
1:30 2 5 mph 1016.9mb 38f 37f
1:24 3 5 mph 1017mb 38f 36f
1:18 2 3 mph 1017mb 38f 37f
1:12 2 5 mph 1017.1mb 38f 37f
1:06 2 3 mph 1017.2mb 38f 37f
1:00 2 5 mph 1017.1mb 38f 36f
12:54 3 5 mph 1017.1mb 38f 36f
12:48 3 5 mph 1017.2mb 38f 36f
12:42 1 3 mph 1017.5mb 38f 36f
12:36 2 3 mph 1017.5mb 38f 36f
12:30 2 3 mph 1017.4mb 38f 36f
12:24 2 3 mph 1017.6mb 38f 36f
12:18 2
mph
1017.7mb 38f 36f
12:12  -  2 mph 1017.7mb 38f 36f
12:06 1 3 mph 1017.7mb 38f 36f
12:00 3 5 mph 1017.6mb 38f 36f
11:54 3 5 mph 1017.5mb 38f 36f
11:48 1 5 mph 1017.7mb 38f 36f
11:42 2 5 mph 1017.7mb 38f 36f
11:36 3 6 mph 1017.7mb 38f 36f
11:30 3 5 mph 1017.7mb 38f 35f
11:24 5 6 mph 1017.6mb 38f 35f
11:18 5 6 mph 1017.6mb 38f 35f
11:12 3 6 mph 1017.8mb 38f 35f
11:06 5 6 mph 1017.8mb 38f 35f
11:00 5 6 mph 1017.9mb 38f 35f
10:54 2 3 mph 1018.1mb 38f 35f
10:48 2 5 mph 1018.1mb 38f 35f
10:42 2 5 mph 1018.1mb 38f 35f
10:36 5 6 mph 1017.9mb 38f 35f
10:30 3 6 mph 1017.9mb 38f 35f
10:24 3 5 mph 1017.9mb 38f 35f
10:18 3 6 mph 1017.8mb 38f 35f
10:00 5 6 mph 1017.8mb 38f 35f
9:54 3 5 mph 1017.9mb 38f 34f
9:36 1
mph
1018mb 38f 35f
9:30  -  mph 1018mb 38f 35f
9:24  -  1 mph 1018.1mb 38f 35f
9:18  -  mph 1018mb 38f 34f
9:12  -  mph 1018mb 38f 34f
9:06  -  1 mph 1018.1mb 38f 34f
9:00 1
mph
1017.8mb 38f 34f
8:54 1 2 mph 1017.9mb 38f 34f
8:42  -  2 mph 1018mb 38f 34f
8:36 2 3 mph 1017.7mb 38f 34f
8:30 1 3 mph 1017.9mb 38f 34f
8:24 1 3 mph 1017.7mb 38f 34f
8:18  -  5 mph 1017.8mb 38f 34f
8:12 2 3 mph 1017.9mb 38f 34f
8:06 2 3 mph 1017.4mb 38f 33f
8:00 2 3 mph 1017.4mb 38f 33f
7:54 3 5 mph 1017mb 38f 33f
7:48 3 5 mph 1017mb 38f 33f
7:42 3 5 mph 1017mb 38f 33f
7:36 2
mph
1017mb 38f 33f
7:30  -  2 mph 1017mb 38f 33f
7:24 1 3 mph 1016.9mb 38f 33f
7:18 2 5 mph 1016.9mb 38f 33f
7:12 5 6 mph 1016.9mb 38f 33f
7:06 3 5 mph 1016.7mb 38f 33f
7:00 5 6 mph 1016.6mb 38f 33f
6:54 3 5 mph 1016.7mb 38f 33f
6:48 5
mph
1016.6mb 38f 33f
6:42 5
mph
1016.7mb 38f 33f
6:36 3 5 mph 1016.9mb 38f 33f
6:30 2 3 mph 1017mb 38f 33f
6:24 2 3 mph 1017mb 38f 33f
6:18 1 2 mph 1016.9mb 38f 33f
6:12 2 3 mph 1016.7mb 38f 33f
6:06 3 5 mph 1016.7mb 38f 33f
6:00 3 5 mph 1016.7mb 38f 33f
5:54 3 5 mph 1016.5mb 38f 33f
5:48 3 5 mph 1016.6mb 38f 33f
5:42 2 5 mph 1016.8mb 38f 33f
5:36 2 3 mph 1016.6mb 38f 33f
5:30 3 6 mph 1016.5mb 38f 33f
5:24 5 6 mph 1016.5mb 38f 33f
5:18 3 7 mph 1016.4mb 38f 33f
5:12 5 7 mph 1016.4mb 38f 33f
5:06 5 6 mph 1016.4mb 38f 33f
5:00 5 6 mph 1016.6mb 38f 33f
4:54 5 9 mph 1016.6mb 38f 33f
4:48 6 7 mph 1016.5mb 38f 33f
4:42 5 6 mph 1016.8mb 38f 33f
4:36 6 8 mph 1016.6mb 38f 33f
4:30 6 7 mph 1016.8mb 38f 33f
4:24 6 7 mph 1016.7mb 38f 33f
4:18 5 7 mph 1016.8mb 38f 33f
4:12 7 8 mph 1016.7mb 38f 33f
4:06 6 7 mph 1016.6mb 38f 33f
4:00 5 6 mph 1016.7mb 38f 33f
3:54 6
mph
1016.8mb 38f 33f
3:48 5 6 mph 1016.8mb 38f 33f
3:42 6 7 mph 1016.8mb 38f 33f
3:36 6 7 mph 1016.8mb 38f 33f
3:30 5
mph
1017mb 38f 33f
3:24 3 6 mph 1017.2mb 38f 33f
3:18 5 6 mph 1017.1mb 38f 33f
3:12 3 6 mph 1017.1mb 38f 33f
3:06 6 8 mph 1017.1mb 38f 33f
3:00 5 7 mph 1017.1mb 38f 33f
2:54 7 8 mph 1016.9mb 38f 33f
2:48 7 8 mph 1017mb 38f 33f
2:42 6 8 mph 1017.1mb 38f 33f
2:36 6 7 mph 1017.2mb 38f 34f
2:30 5 6 mph 1017.3mb 38f 33f
2:24 5 6 mph 1017.5mb 38f 34f
2:18 6 7 mph 1017.6mb 38f 34f
2:12 5 7 mph 1017.5mb 38f 34f
2:06 6 8 mph 1017.5mb 38f 34f
2:00 8
mph
1017.5mb 38f 34f
1:54 6 8 mph 1017.4mb 38f 34f
1:48 6 8 mph 1017.4mb 38f 34f
1:42 6 8 mph 1017.4mb 38f 34f
1:36 6 8 mph 1017.3mb 38f 34f
1:30 6 7 mph 1017.2mb 38f 34f
1:24 6 8 mph 1017.4mb 38f 34f
1:18 6 9 mph 1017.4mb 38f 34f
1:12 6 7 mph 1017.4mb 38f 34f
1:06 5 6 mph 1017.5mb 38f 34f
1:00 6 8 mph 1017.6mb 38f 34f
12:54 6 8 mph 1017.4mb 38f 34f
12:48 7 8 mph 1017.2mb 38f 34f
12:42 7 8 mph 1017.5mb 38f 34f
12:36 6 9 mph 1017.5mb 38f 34f
12:30 6 7 mph 1017.4mb 38f 34f
12:24 6 8 mph 1017.4mb 38f 34f
12:18 7 9 mph 1017.3mb 38f 34f
12:12 8 10 mph 1017.4mb 38f 34f
12:06 7 9 mph 1017.3mb 38f 34f
12:00 7 11 mph 1017.3mb 38f 34f
Seg 03/27 11:54 9 11 mph 1017mb 38f 34f
11:48 8 11 mph 1017.1mb 38f 34f
11:42 8 10 mph 1017.1mb 38f 34f
11:36 7 9 mph 1017.2mb 38f 34f
11:30 6 8 mph 1017.1mb 38f 34f
11:24 8 10 mph 1017.2mb 38f 34f
11:18 6 11 mph 1017.2mb 38f 34f
11:12 8 11 mph 1017mb 38f 34f
11:06 8 10 mph 1017.1mb 38f 34f
11:00 9 10 mph 1017.2mb 38f 34f
10:54 9 11 mph 1017.1mb 38f 34f
10:48 9 11 mph 1017.2mb 38f 34f
10:42 9 11 mph 1017.2mb 38f 34f
10:36 8 13 mph 1017.2mb 38f 35f
10:30 10 14 mph 1017.2mb 38f 34f
10:24 7 9 mph 1017.3mb 38f 35f
10:18 8 11 mph 1017.4mb 38f 35f
10:12 9 13 mph 1017.5mb 38f 35f
10:06 9 13 mph 1017.4mb 38f 35f
10:00 10 13 mph 1017.4mb 38f 35f
9:54 11 14 mph 1017.4mb 38f 35f
9:48 9 11 mph 1017.4mb 38f 35f
9:42 10 13 mph 1017.5mb 38f 35f
9:36 9 11 mph 1017.5mb 38f 35f
9:30 10 11 mph 1017.5mb 38f 35f
9:24 9 11 mph 1017.4mb 38f 35f
9:18 9 13 mph 1017.5mb 38f 35f
9:12 10 15 mph 1017.4mb 38f 35f
9:06 10 13 mph 1017.3mb 38f 35f
9:00 10 14 mph 1017.4mb 38f 35f
8:54 10 13 mph 1017.3mb 38f 35f
8:48 9 13 mph 1017.2mb 38f 36f
8:42 9 13 mph 1017.4mb 38f 36f
8:36 8 13 mph 1017.3mb 38f 36f
8:30 8 13 mph 1017.2mb 38f 36f
8:24 10 13 mph 1017.3mb 38f 36f
8:18 8 14 mph 1017.3mb 38f 36f
8:12 10 13 mph 1017.1mb 38f 36f
8:06 9 11 mph 1017.1mb 38f 36f
8:00 9 11 mph 1017.2mb 38f 36f
7:54 7 10 mph 1017.1mb 38f 36f
7:48 10 14 mph 1017.1mb 38f 36f
7:42 13 15 mph 1017.1mb 38f 36f
7:36 10 13 mph 1017mb 38f 36f
7:30 10 13 mph 1016.9mb 38f 36f
7:24 11 14 mph 1016.9mb 38f 36f
7:18 11 14 mph 1016.9mb 38f 37f
7:12 11 16 mph 1017.1mb 38f 37f
7:06 13 17 mph 1017.1mb 38f 37f
7:00 11 14 mph 1017mb 38f 37f
6:54 11 14 mph 1017mb 38f 37f
6:48 10 14 mph 1017mb 38f 37f
6:42 9 11 mph 1017mb 38f 37f
6:36 10 15 mph 1017mb 38f 37f
6:30 10 14 mph 1017.1mb 38f 37f
6:24 11 15 mph 1017.1mb 38f 37f
6:18 9 16 mph 1017.1mb 38f 37f
6:12 11 16 mph 1017.1mb 38f 37f
6:06 11 17 mph 1017mb 38f 37f
6:00 14 16 mph 1016.8mb 38f 37f
5:54 11 18 mph 1016.9mb 38f 37f
5:48 11 16 mph 1016.9mb 38f 37f
5:42 11 15 mph 1016.9mb 38f 37f
5:36 10 14 mph 1017.2mb 38f 37f
5:30 9 13 mph 1017.1mb 38f 37f
5:24 9 13 mph 1016.8mb 38f 38f
5:18 13 16 mph 1016.8mb 38f 38f
5:12 13 15 mph 1016.9mb 38f 38f
5:06 10 16 mph 1016.8mb 38f 38f
5:00 8 14 mph 1017.1mb 38f 38f
4:54 9 13 mph 1017.2mb 38f 38f
4:48 10 14 mph 1017mb 38f 38f
4:42 11 15 mph 1017.2mb 38f 38f
4:36 8 14 mph 1017.4mb 38f 38f
4:30 9 15 mph 1017.6mb 38f 38f
4:24 9 14 mph 1017.6mb 38f 38f
4:18 9 15 mph 1017.4mb 38f 38f
4:12 9 15 mph 1017.4mb 38f 38f
4:06 11 15 mph 1017.4mb 38f 38f
4:00 13 17 mph 1017.6mb 38f 38f
3:54 9 14 mph 1017.6mb 38f 38f
3:48 13 16 mph 1017.8mb 38f 38f
3:42 10 15 mph 1017.9mb 38f 38f
3:36 13 15 mph 1018.2mb 38f 38f
3:30 11 14 mph 1018.3mb 38f 38f
3:24 10 15 mph 1018.4mb 38f 38f
3:18 9 13 mph 1018.7mb 38f 38f
3:12 13 16 mph 1018.7mb 38f 38f
3:06 11 16 mph 1018.7mb 38f 38f
3:00 13 16 mph 1018.8mb 38f 38f
2:54 11 15 mph 1018.9mb 38f 38f
2:48 13 17 mph 1018.9mb 38f 38f
2:42 13 16 mph 1019.1mb 38f 38f
2:36 10 15 mph 1019.2mb 38f 38f
2:30 11 16 mph 1019.3mb - 38f
2:24 13 16 mph 1019.4mb - 38f
2:18 11 16 mph 1019.6mb 38f 38f
2:12 11 16 mph 1019.6mb 38f 38f
2:06 11 15 mph 1019.6mb 38f 38f
2:00 11 15 mph 1019.9mb 38f 38f
1:54 11 15 mph 1020mb 38f 38f
1:48 13 17 mph 1020.1mb 38f 38f
1:42 14 17 mph 1020.1mb 38f 38f
1:36 14 17 mph 1020.2mb 38f 38f
1:30 14 18 mph 1020.3mb 38f 38f
1:24 15 17 mph 1020.5mb 38f 38f
1:18 15 20 mph 1020.6mb 38f 38f
1:12 17 20 mph 1020.3mb 38f 38f
1:06 16 20 mph 1020.5mb 38f 38f
1:00 14 17 mph 1020.9mb 38f 38f
12:54 14 17 mph 1021mb 38f 38f
12:48 15 17 mph 1021.2mb 38f 38f
12:42 13 15 mph 1021.5mb 38f 38f
12:36 10 14 mph 1021.8mb 38f 38f
12:30 10 16 mph 1022mb 38f 38f
12:24 11 15 mph 1021.7mb 38f 38f
12:18 14 17 mph 1021.6mb 38f 38f
12:12 13 16 mph 1022mb 38f 38f
12:06 11 14 mph 1022.6mb 38f 38f
12:00 10 14 mph 1022.4mb 38f 38f
11:54 11 16 mph 1022.3mb 38f 38f
11:48 15 17 mph 1022mb 38f 38f
11:42 14 17 mph 1022mb 38f 38f
11:36 14 16 mph 1022.2mb 38f 38f
11:30 14 17 mph 1022.2mb 38f 38f
11:24 14 16 mph 1022.3mb 38f 38f
11:18 11 14 mph 1022.8mb 38f 38f
11:12 11 14 mph 1022.9mb 38f 38f
11:06 9 13 mph 1023.3mb 38f 38f
11:00 11 14 mph 1023mb 38f 38f
10:54 11 14 mph 1023mb 38f 38f
10:48 11 14 mph 1023.1mb 38f 38f
10:42 13 15 mph 1023.1mb 38f 38f
10:36 13 15 mph 1023.1mb 38f 38f
10:30 11 14 mph 1023.1mb 38f 38f
10:24 11 15 mph 1023.4mb 38f 38f
10:18 11 14 mph 1023.4mb 38f 38f
10:12 11 14 mph 1023.5mb 38f 38f
10:06 11 14 mph 1023.6mb 38f 38f
10:00 11 14 mph 1023.7mb 38f 38f
9:54 11 14 mph 1023.9mb 38f 38f
9:48 11 13 mph 1024mb 38f 38f
9:42 10 14 mph 1024mb 38f 37f
9:36 10 14 mph 1024mb 38f 37f
9:30 10 14 mph 1024mb 38f 37f
9:24 10 14 mph 1023.9mb 38f 37f
9:18 13 14 mph 1024mb 38f 37f
9:12 13 15 mph 1024mb 38f 37f
9:06 13 15 mph 1024mb 38f 37f
9:00 11 16 mph 1024.1mb 38f 37f
8:54 13 15 mph 1024.3mb 38f 37f
8:48 11 14 mph 1024.4mb 38f 37f
8:42 10 14 mph 1024.6mb 38f 37f
8:36 11 17 mph 1024.5mb 38f 37f
8:30 10 14 mph 1024.7mb 38f 37f
8:24 11 14 mph 1025mb 38f 37f
8:18 11 15 mph 1025mb 38f 37f
8:12 11 14 mph 1025mb 38f 37f
8:06 9 14 mph 1025mb 38f 37f
8:00 10 15 mph 1025mb 38f 36f
7:54 11 15 mph 1025.1mb 38f 36f
7:48 10 15 mph 1025.1mb 38f 36f
7:42 10 14 mph 1025.2mb 38f 36f
7:36 10 14 mph 1025.2mb 38f 36f
7:30 9 13 mph 1025.3mb 38f 36f
7:24 10 15 mph 1025.2mb 38f 36f
7:18 8 14 mph 1025.3mb 38f 36f
7:12 10 15 mph 1025.4mb 38f 36f
7:06 9 14 mph 1025.5mb 38f 36f
7:00 9 15 mph 1025.5mb 38f 36f
6:54 9 13 mph 1025.7mb 38f 36f
6:48 9 13 mph 1025.8mb 38f 36f
6:42 7 10 mph 1026mb 38f 36f
6:36 8 11 mph 1026.2mb 38f 36f
6:30 10 15 mph 1026.1mb 38f 36f
6:24 9 13 mph 1025.9mb 38f 36f
6:18 9 14 mph 1026mb 38f 36f
6:12 9 13 mph 1025.9mb 38f 36f
6:06 10 14 mph 1025.9mb 38f 36f
6:00 10 15 mph 1026.1mb 38f 36f
5:54 10 16 mph 1026.3mb 38f 36f
5:48 9 14 mph 1026.4mb 38f 36f
5:42 10 14 mph 1026.4mb 38f 36f
5:36 9 13 mph 1026.4mb 38f 36f
5:30 13 17 mph 1026.5mb 38f 36f
5:24 14 18 mph 1026.5mb 38f 36f
5:18 13 15 mph 1026.6mb 38f 37f
5:12 10 16 mph 1026.6mb 38f 37f
5:06 10 16 mph 1026.8mb 38f 37f
5:00 11 14 mph 1027.1mb 38f 37f
4:54 9 15 mph 1027mb 38f 37f
4:48 13 16 mph 1027mb 38f 37f
4:42 11 14 mph 1027.1mb 38f 37f
4:36 8 16 mph 1027.1mb 38f 37f
4:30 11 14 mph 1027.2mb 38f 37f
4:24 9 14 mph 1027.2mb 38f 37f
4:18 8 14 mph 1027.2mb 38f 37f
4:12 9 13 mph 1027.2mb 38f 37f
4:06 11 15 mph 1027.3mb 38f 37f
4:00 11 17 mph 1027.5mb 38f 37f
3:54 13 16 mph 1027.6mb 38f 37f
3:48 11 15 mph 1027.6mb 38f 37f
3:42 10 14 mph 1027.8mb 38f 37f
3:36 11 14 mph 1027.7mb 38f 37f
3:30 11 13 mph 1027.8mb 38f 37f
3:24 11 15 mph 1028mb 38f 37f
3:18 11 14 mph 1028.1mb 38f 37f
3:12 10 13 mph 1028.1mb 38f 37f
3:06 10 13 mph 1028.1mb 38f 37f
3:00 10 14 mph 1028.1mb 38f 37f
2:54 11 14 mph 1028.2mb 38f 37f
2:48 11 13 mph 1028.2mb 38f 37f
2:42 10 13 mph 1028.3mb 38f 37f
2:36 8 11 mph 1028.3mb 38f 37f
2:30 9 13 mph 1028.3mb 38f 37f
2:24 9 11 mph 1028.4mb 38f 37f
2:18 9 11 mph 1028.5mb 38f 37f
2:12 9 10 mph 1028.6mb 38f 37f
2:06 9 11 mph 1028.6mb 38f 37f
2:00 9 11 mph 1028.7mb 38f 37f
1:54 10 13 mph 1028.6mb 38f 37f
1:48 10 13 mph 1028.7mb 38f 37f
1:42 11 14 mph 1028.7mb 38f 37f
1:36 11 14 mph 1028.7mb 38f 37f
1:30 10 13 mph 1028.7mb 38f 37f
1:24 11 14 mph 1028.9mb 38f 37f
1:18 10 11 mph 1029.1mb 38f 37f
1:12 9 11 mph 1029.2mb 38f 37f
1:06 9 11 mph 1029.3mb 38f 37f
1:00 9 11 mph 1029.4mb 38f 36f
12:54 9 11 mph 1029.5mb 38f 36f
12:48 10 11 mph 1029.6mb 38f 36f
12:42 9 11 mph 1029.6mb 38f 36f
12:36 9 11 mph 1029.6mb 38f 37f
12:30 9 10 mph 1030.1mb 38f 37f
12:24 9 11 mph 1030.3mb 38f 36f
12:18 9 11 mph 1030.3mb 38f 36f
12:12 9 13 mph 1030.4mb 38f 37f
12:06 9 10 mph 1030.2mb 38f 37f
12:00 8 10 mph 1030.2mb 38f 36f
Dom 03/26 11:54 7 9 mph 1030.5mb 38f 36f
11:48 8 10 mph 1030.7mb 38f 36f
11:42 8 11 mph 1030.8mb 38f 36f
11:36 9 11 mph 1030.7mb 38f 36f
11:30 9 11 mph 1030.7mb 38f 36f
11:24 9 11 mph 1030.7mb 38f 36f
11:18 8 10 mph 1030.7mb 38f 36f
11:12 9 11 mph 1030.7mb 38f 36f
11:06 9 11 mph 1030.8mb 38f 36f
11:00 9 11 mph 1030.9mb 38f 36f
10:54 8 10 mph 1030.9mb 38f 36f
10:48 9 10 mph 1030.9mb 38f 36f
10:42 9 13 mph 1030.9mb 38f 36f
10:36 9 11 mph 1030.8mb 38f 36f
10:30 9 10 mph 1030.9mb 38f 36f
10:24 10 11 mph 1030.8mb 38f 36f
10:18 9 11 mph 1031mb 38f 36f
10:12 9 11 mph 1031.2mb 38f 36f
10:06 10 11 mph 1031.3mb 38f 36f
10:00 8 11 mph 1031.3mb 38f 36f
9:54 8 10 mph 1031.4mb 38f 36f
9:48 9 10 mph 1031.4mb 38f 36f
9:42 9 11 mph 1031.5mb 38f 36f
9:36 8 9 mph 1031.5mb 38f 36f
9:30 8 10 mph 1031.5mb 38f 36f
9:24 8 10 mph 1031.7mb 38f 36f
9:18 8 10 mph 1031.6mb 38f 35f
9:12 7 9 mph 1031.5mb 38f 35f
9:06 7 10 mph 1031.6mb 38f 35f
9:00 8 10 mph 1031.9mb 38f 36f
8:54 8 9 mph 1032.1mb 38f 35f
8:48 9 10 mph 1032mb 38f 35f
8:42 9 11 mph 1032.1mb 38f 35f
8:36 7 9 mph 1032.1mb 38f 35f
8:30 8 9 mph 1032.1mb 38f 35f
8:24 7 9 mph 1032.1mb 38f 35f
8:18 7 9 mph 1032.3mb 38f 35f
8:12 8 9 mph 1032.2mb 38f 35f
8:06 7 8 mph 1032.2mb 38f 35f
8:00 8 10 mph 1032.3mb 38f 35f
7:54 8 10 mph 1032.3mb 39f 35f
7:48 7 9 mph 1032.4mb 39f 35f
7:42 8 10 mph 1032.4mb 39f 35f
7:36 8 9 mph 1032.4mb 39f 35f
7:30 8 10 mph 1032.4mb 40f 35f
7:24 7 10 mph 1032.6mb 40f 35f
7:18 9 11 mph 1032.7mb 40f 35f
7:12 9 10 mph 1032.9mb 40f 35f
7:06 9 10 mph 1033mb 40f 35f
7:00 8 10 mph 1033mb 40f 35f
6:54 9 10 mph 1033mb 40f 35f
6:48 9 11 mph 1033mb 40f 35f
6:42 9 11 mph 1032.9mb 40f 35f
6:36 9 11 mph 1033.1mb 40f 35f
6:30 8 10 mph 1033.1mb 40f 35f
6:24 9 11 mph 1033.1mb 40f 35f
6:18 8 9 mph 1033.2mb 40f 35f
6:12 9 10 mph 1033.2mb 40f 35f
6:06 8 10 mph 1033.3mb 40f 35f
6:00 8 10 mph 1033.2mb 40f 35f
5:54 6 9 mph 1033.1mb 40f 35f
5:48 9 11 mph 1033.2mb 39f 35f
5:42 9 11 mph 1033.3mb 39f 35f
5:36 8 10 mph 1033.3mb 39f 35f
5:30 9 11 mph 1033.3mb 39f 35f
5:24 9 11 mph 1033.4mb 39f 35f
5:18 9 11 mph 1033.4mb 39f 35f
5:12 8 10 mph 1033.4mb 39f 35f
5:06 9 11 mph 1033.5mb 39f 35f
5:00 6 9 mph 1033.4mb 39f 35f
4:54 8 11 mph 1033.5mb 39f 34f
4:48 9 11 mph 1033.4mb 39f 35f
4:42 8 9 mph 1033.4mb 39f 34f
4:36 7 9 mph 1033.4mb 39f 35f
4:30 7 9 mph 1033.5mb 39f 35f
4:24 8 9 mph 1033.5mb 39f 35f
4:18 8 10 mph 1033.5mb 39f 35f
4:12 6 8 mph 1033.4mb 39f 35f
4:06 6 9 mph 1033.4mb 39f 35f
4:00 7 9 mph 1033.5mb 39f 35f
3:54 6 8 mph 1033.4mb 38f 34f
3:48 7 8 mph 1033.4mb 38f 34f
3:42 6 7 mph 1033.4mb 38f 35f
3:36 6 8 mph 1033.5mb 38f 34f
3:30 7 8 mph 1033.5mb 38f 34f
3:24 8 9 mph 1033.6mb 38f 34f
3:18 8 9 mph 1033.7mb 38f 34f
3:12 8 9 mph 1033.7mb 39f 34f
3:06 7 9 mph 1033.8mb 38f 34f
3:00 8 10 mph 1033.9mb 38f 34f
2:54 7 9 mph 1034mb 38f 34f
2:48 6 10 mph 1034.2mb 38f 34f
2:42 6 10 mph 1034.2mb 38f 34f
2:36 7 9 mph 1034.3mb 38f 34f
2:30 8 9 mph 1034.5mb 38f 34f
2:24 7 10 mph 1034.5mb 38f 34f
2:18 6 10 mph 1034.7mb 38f 33f
2:12 7 10 mph 1034.6mb 38f 34f
2:06 7 10 mph 1034.7mb 38f 33f
2:00 6 9 mph 1034.9mb 38f 33f
1:54 7 9 mph 1034.9mb 38f 33f
1:48 7 9 mph 1035mb 37f 33f
1:42 8 11 mph 1035.1mb 37f 33f
1:36 7 11 mph 1035.1mb 37f 33f
1:30 8 13 mph 1035.2mb 38f 33f
1:24 10 11 mph 1035.2mb 38f 33f
1:18 9 10 mph 1035.4mb 38f 32f
1:12 9 11 mph 1035.5mb 38f 32f
1:06 7 10 mph 1035.6mb 38f 32f
1:00 7 10 mph 1035.7mb 38f 32f
12:54 7 10 mph 1035.8mb 38f 32f
12:48 9 11 mph 1035.7mb 38f 32f
12:42 10 13 mph 1035.6mb 38f 32f
12:36 8 10 mph 1035.7mb 38f 32f
12:30 10 13 mph 1035.7mb 38f 32f
12:24 9 11 mph 1035.8mb 38f 32f
12:18 10 11 mph 1035.9mb 38f 32f
12:12 9 14 mph 1035.9mb 38f 32f
12:06 9 14 mph 1035.9mb 38f 32f
12:00 11 14 mph 1035.9mb 38f 32f
11:54 10 15 mph 1035.8mb 38f 32f
11:48 11 14 mph 1035.8mb 38f 32f
11:42 11 15 mph 1035.8mb 38f 32f
11:36 13 15 mph 1035.8mb 38f 32f
11:30 11 14 mph 1035.8mb 37f 32f
11:24 13 15 mph 1035.8mb 37f 33f
11:18 11 14 mph 1035.8mb 37f 32f
11:12 10 14 mph 1036mb 37f 32f
11:06 10 14 mph 1035.9mb 37f 33f
11:00 11 15 mph 1036mb 37f 33f
10:54 10 15 mph 1036mb 37f 32f
10:48 10 14 mph 1036mb 37f 33f
10:42 11 16 mph 1036mb 37f 33f
10:36 11 15 mph 1035.9mb 37f 32f
10:30 11 15 mph 1035.8mb 37f 33f
10:24 11 16 mph 1035.9mb 37f 33f
10:18 13 16 mph 1035.8mb 37f 33f
10:12 13 16 mph 1035.7mb 37f 33f
10:06 13 16 mph 1035.8mb 37f 33f
10:00 11 16 mph 1035.8mb 37f 33f
9:54 11 15 mph 1035.7mb 37f 33f
9:48 13 15 mph 1035.6mb 37f 33f
9:42 10 15 mph 1035.6mb 37f 33f
9:36 14 16 mph 1035.5mb 37f 33f
9:30 11 15 mph 1035.5mb 37f 33f
9:24 14 17 mph 1035.5mb 37f 33f
9:18 11 18 mph 1035.4mb 37f 33f
9:12 15 18 mph 1035.4mb 37f 33f
9:06 14 16 mph 1035.3mb 37f 33f
9:00 11 17 mph 1035.4mb 37f 33f
8:54 8 10 mph 1035.3mb 37f 33f
8:48 7 10 mph 1035.2mb 37f 32f
8:42 8 10 mph 1035.2mb 37f 32f
8:36 8 10 mph 1035.2mb 37f 31f
8:30 8 9 mph 1035.4mb 37f 31f
8:24 7 9 mph 1035.3mb 37f 31f
8:18 7 9 mph 1035.3mb 37f 31f
8:12 6 7 mph 1035.3mb 37f 30f
8:06 7 9 mph 1035.2mb 37f 30f
8:00 7 9 mph 1035.1mb 37f 30f
7:54 7 10 mph 1035.2mb 37f 29f
7:48 8 10 mph 1035mb 37f 29f
7:42 8 10 mph 1034.9mb 37f 29f
7:36 8 10 mph 1035mb 37f 28f
7:30 7 9 mph 1035mb 37f 28f
7:24 7 8 mph 1035mb 37f 28f
7:18 6 8 mph 1034.9mb 37f 28f
7:12 6 7 mph 1034.9mb 37f 28f
7:06 6 8 mph 1034.9mb 37f 27f
7:00 7
mph
1034.7mb 37f 27f
6:54 6 7 mph 1034.8mb 37f 27f
6:48 6 7 mph 1034.6mb 37f 27f
6:42 6 7 mph 1034.7mb 37f 27f
6:36 6 8 mph 1034.6mb 37f 27f
6:30 7 8 mph 1034.5mb 37f 27f
6:24 7
mph
1034.5mb 37f 27f
6:18 6 7 mph 1034.4mb 37f 27f
6:12 5 7 mph 1034.2mb 37f 27f
6:06 7 8 mph 1034.1mb 37f 27f
6:00 7 8 mph 1033.8mb 37f 27f
5:54 7 8 mph 1033.8mb 37f 27f
5:48 7
mph
1033.6mb 37f 28f
5:42 7
mph
1033.5mb 37f 28f
5:36 6 8 mph 1033.5mb 37f 28f
5:30 7 8 mph 1033.5mb 37f 28f
5:24 7 8 mph 1033.4mb 37f 28f
5:18 6 9 mph 1033.3mb 37f 28f
5:12 7 8 mph 1033.2mb 37f 28f
5:06 6 9 mph 1033.2mb 37f 28f
5:00 9 10 mph 1032.8mb 37f 28f
4:54 9 11 mph 1032.7mb 37f 28f
4:48 9 11 mph 1032.5mb 37f 28f
4:42 8 10 mph 1032.4mb 37f 28f
4:36 9 11 mph 1032.4mb 37f 28f
4:30 9 13 mph 1032.4mb 37f 29f
4:24 8 10 mph 1032.4mb 37f 28f
4:18 8 11 mph 1032.3mb 37f 29f
4:12 8 10 mph 1032.2mb 37f 29f
4:06 7 9 mph 1032.3mb 37f 29f
4:00 8 10 mph 1032.3mb 37f 29f
3:54 8 10 mph 1032.2mb 37f 29f
3:48 9 10 mph 1032.1mb 37f 29f
3:42 9 11 mph 1032.1mb 37f 29f
3:36 8 9 mph 1032.2mb 37f 30f
3:30 7 9 mph 1032.2mb 37f 30f
3:24 7 9 mph 1032.2mb 37f 30f
3:18 8 10 mph 1032.2mb 37f 31f
3:12 8 11 mph 1032.2mb 37f 31f
3:06 7 9 mph 1032.1mb 37f 31f
3:00 7 10 mph 1032mb 37f 31f
2:54 7 11 mph 1032mb 37f 31f
2:48 9 11 mph 1031.9mb 37f 31f
2:42 8 11 mph 1031.9mb 37f 31f
2:36 9 11 mph 1031.9mb 37f 31f
2:30 8 10 mph 1031.9mb 37f 31f
2:24 8 10 mph 1031.9mb 37f 31f
2:18 7 9 mph 1031.8mb 37f 31f
2:12 7 9 mph 1031.7mb 38f 32f
2:06 8 10 mph 1031.5mb 38f 32f
2:00 9 11 mph 1031.5mb 38f 32f
1:54 8 10 mph 1031.3mb 38f 32f
1:48 9 11 mph 1031.3mb 38f -
1:42 9 11 mph 1031.2mb 38f -
1:36 10 13 mph 1031.2mb 38f -
1:30 10 14 mph 1031.1mb 38f 33f
1:24 10 13 mph 1031.2mb 38f 33f
1:18 10 15 mph 1031.2mb 38f 33f
1:12 11 14 mph 1031.2mb 38f 33f
1:06 10 11 mph 1031.1mb 38f 33f
1:00 9 10 mph 1031.1mb 38f 33f
12:54 8 10 mph 1031.2mb 38f 33f
12:48 7 8 mph 1031.2mb 38f 32f
12:42 6 8 mph 1031.1mb 38f 33f
12:36 7 8 mph 1031mb 38f 33f
12:30 6 8 mph 1030.9mb 38f 32f
12:24 6 8 mph 1030.9mb 38f 32f
12:18 3 6 mph 1030.8mb 37f 32f
12:12 3 7 mph 1030.8mb 37f 33f
12:06 6 9 mph 1030.8mb 37f 33f
12:00 9 13 mph 1030.5mb 37f 34f
Sáb 03/25 11:54 9 13 mph 1030.4mb 37f 34f
11:48 9 14 mph 1030.3mb 38f 34f
11:42 9 11 mph 1030.3mb 38f 34f
11:36 7 9 mph 1030.3mb 38f 33f
11:30 7 8 mph 1030.2mb 38f 33f
11:24 6 7 mph 1030.1mb 38f 33f
11:18 6 7 mph 1030.1mb 38f 33f
11:12 7 8 mph 1029.9mb 38f 33f
11:06 6 7 mph 1029.9mb 38f 33f
11:00 6 8 mph 1029.9mb 38f 33f
10:54 6 7 mph 1029.8mb 38f 32f
10:48 5 6 mph 1029.8mb 38f 32f
10:42 3 6 mph 1029.6mb 38f 32f
10:36 3 5 mph 1029.6mb 38f 32f
10:30 5
mph
1029.6mb 38f 32f
10:24 5 6 mph 1029.6mb 38f 32f
10:18 5 6 mph 1029.6mb 38f 32f
10:12 3 6 mph 1029.6mb 38f 32f
10:06 5
mph
1029.5mb 38f 32f
10:00 3 5 mph 1029.4mb 38f 32f
9:54 2
mph
1029.3mb 38f 32f
9:48 1 2 mph 1029.3mb 38f 32f
9:42 1 3 mph 1029.3mb 38f 32f
9:36 5 6 mph 1029.1mb 38f 32f
9:30 5 6 mph 1029mb 38f 32f
9:24 3 6 mph 1029mb 38f 33f
9:18 5 6 mph 1029mb 38f 33f